Theta_e
305 304 305 304 304 304 306 307 307 307 308 309 311 311 312 311 310 310 310 311 312 313 313 313 313 314 314 314 315 315 314 314 314 313 313 313 313 311 311 311 311 311 311 311 311 312 312 313 312 311 311 311 310 309 308 308 308 306 305 305 304 304
304 304 304 305 305 305 304 304 305 306 307 307 308 308 308 307 308 308 308 309 309 310 310 310 311 311 311 312 311 311 311 312 312 312 311 311 311 311 311 310 310 310 309 310 309 310 310 311 311 311 310 310 309 309 308 308 307 306 305 305 305 304
305 305 304 304 303 302 303 304 304 306 306 307 308 307 307 307 308 308 308 308 308 308 308 309 309 308 309 309 309 309 310 310 310 310 311 310 310 309 309 309 308 309 309 309 309 309 309 309 309 310 309 309 309 308 308 308 308 307 306 306 304 303
306 305 303 302 303 304 304 304 304 304 305 307 307 307 308 309 308 308 308 307 308 307 307 307 308 307 307 307 307 307 308 308 309 309 309 308 308 309 308 308 309 308 309 308 308 308 308 308 309 309 308 307 307 307 307 307 307 306 305 304 301 301
303 302 302 304 304 304 303 302 304 305 305 304 304 305 307 307 308 307 307 307 306 306 306 306 305 305 305 305 306 306 306 307 307 307 306 307 307 308 307 307 308 307 307 307 307 307 307 307 307 308 307 307 306 306 306 306 305 304 303 301 300 300
302 304 305 306 306 305 304 303 302 302 303 303 303 303 304 304 304 305 304 305 305 304 304 303 304 302 303 303 304 304 304 304 304 304 304 305 306 305 306 305 306 306 305 305 305 305 305 305 306 306 306 305 305 305 304 304 304 304 303 301 299 299
304 305 306 307 306 305 305 304 303 302 301 300 301 302 302 302 302 302 303 303 303 302 302 302 301 301 301 301 302 302 302 302 301 301 301 302 302 303 303 302 302 302 302 302 303 304 304 304 305 305 304 304 304 304 304 303 303 303 302 301 300 296
303 303 304 305 305 303 303 303 302 301 301 301 298 300 300 300 300 301 302 302 301 301 300 301 300 300 301 301 301 301 300 300 300 300 300 300 301 302 301 300 300 299 299 300 301 302 303 303 303 304 303 303 303 302 302 302 301 301 301 300 299 299
303 301 302 303 303 302 302 301 301 301 301 301 299 298 299 299 299 299 300 300 300 301 301 301 300 300 300 300 300 300 299 299 299 298 299 299 299 299 300 300 299 300 299 299 299 300 301 301 302 302 302 302 302 302 300 299 299 298 299 300 300 300
303 301 302 302 304 303 302 300 298 298 298 299 299 298 298 299 298 298 299 299 300 301 301 300 299 299 299 299 299 298 298 298 298 298 298 297 298 298 299 299 299 299 299 299 299 300 300 300 300 301 301 301 301 301 300 299 298 297 297 298 299 299
304 303 301 301 300 301 300 300 300 299 299 298 298 298 297 296 297 298 298 299 300 300 299 298 298 298 298 297 297 297 297 297 297 297 297 297 297 297 298 298 298 298 298 298 298 298 298 298 299 299 300 300 299 300 300 299 298 297 297 297 297 298
300 300 300 300 300 301 299 299 299 298 298 299 297 297 297 297 298 298 298 299 299 298 297 297 297 297 297 296 297 297 297 296 296 296 296 295 296 297 297 297 297 296 296 296 296 296 296 297 297 293 293 294 298 299 299 299 298 297 296 296 296 296
298 297 297 298 298 297 297 297 297 296 296 296 296 296 296 296 298 297 297 298 297 296 296 296 296 296 296 296 296 296 294 295 295 295 294 294 294 294 295 294 295 295 295 295 294 294 295 296 296 292 294 294 294 295 297 297 297 297 296 295 295 295
296 296 296 296 296 296 296 296 296 296 296 296 295 295 294 296 297 297 297 296 296 295 295 296 295 295 295 294 295 294 293 293 291 292 292 293 293 293 294 293 294 295 295 295 295 295 295 295 292 293 293 293 294 293 295 296 296 296 296 295 295 295
295 295 295 295 296 295 295 294 295 295 294 294 294 294 295 296 296 297 296 295 295 295 295 294 294 294 294 294 293 290 290 289 290 290 290 290 291 291 292 293 294 294 295 295 295 294 295 295 293 293 293 293 293 293 293 295 296 295 295 295 295 295
295 295 294 294 294 293 293 293 293 293 293 293 294 295 296 296 295 295 294 294 293 293 293 293 291 292 293 292 290 291 289 289 290 291 291 291 290 291 292 291 292 292 293 294 294 294 295 295 292 292 292 292 292 293 293 295 295 295 295 295 295 295
294 295 294 293 292 293 293 293 292 293 294 294 294 294 294 294 294 293 293 293 293 292 292 292 292 291 291 291 290 289 289 290 289 289 290 290 291 290 291 292 291 291 290 291 291 293 293 294 292 292 292 292 292 292 293 295 295 295 295 295 295 295
293 293 292 291 293 292 292 291 291 293 292 293 293 292 293 293 293 292 292 292 291 291 291 291 291 291 289 290 289 289 289 290 289 289 290 290 291 291 291 290 290 289 289 290 290 291 292 293 292 291 291 291 292 292 293 293 294 293 294 294 294 294
292 291 292 292 291 291 290 290 291 292 292 291 292 292 292 291 291 290 290 290 290 290 290 290 289 288 288 288 288 288 288 288 289 289 290 289 289 289 289 289 289 290 290 289 289 289 290 291 291 291 291 291 291 291 291 292 291 291 292 292 293 293
291 291 292 291 290 289 290 290 291 292 291 291 291 291 290 290 289 289 289 289 289 289 289 289 288 287 287 287 286 287 288 288 288 288 289 288 288 289 289 289 290 289 289 288 288 289 289 289 290 290 290 290 291 290 290 290 290 290 290 291 292 293
290 290 290 290 289 289 289 290 290 290 289 289 289 289 288 287 287 287 287 287 288 288 288 288 287 286 286 286 286 287 286 287 287 288 288 288 288 288 289 289 289 289 289 289 288 286 287 288 288 289 289 289 290 290 289 290 290 289 289 289 290 291
289 288 288 287 287 288 288 289 289 287 288 288 287 286 286 285 286 286 286 287 287 287 287 286 285 285 285 285 286 286 286 287 287 287 287 287 287 288 289 289 288 287 287 288 288 287 288 288 288 288 289 289 289 289 289 289 289 288 288 288 288 288
287 286 286 286 286 286 287 288 287 287 287 286 285 283 284 284 285 284 284 285 285 285 285 285 285 285 285 285 285 285 285 286 286 286 285 285 286 287 287 286 286 286 287 287 288 288 287 287 287 287 288 288 288 289 288 288 288 288 288 288 288 288
286 286 285 285 285 285 285 286 285 285 285 284 282 282 283 282 282 283 283 283 283 284 284 284 284 284 284 284 284 284 284 285 285 284 284 286 286 284 284 285 285 286 287 287 287 287 287 287 286 286 286 287 287 288 288 287 287 288 288 287 287 287
284 284 284 284 283 283 283 283 283 283 283 280 280 280 280 280 280 280 280 281 282 282 282 283 283 283 283 283 283 283 282 284 284 284 284 284 284 284 284 285 285 286 286 286 288 288 287 287 287 285 285 285 286 287 287 287 287 288 288 287 286 287
284 283 283 283 283 282 282 282 281 280 279 277 277 277 277 277 277 278 279 280 281 281 282 282 282 282 282 283 283 282 282 283 283 283 284 285 284 285 285 286 286 286 286 286 287 287 288 287 287 286 285 285 285 286 286 287 287 288 287 287 287 287
282 282 282 281 281 281 281 281 279 278 275 275 275 274 274 274 275 277 277 278 279 279 280 280 281 282 282 282 282 281 282 282 283 283 284 284 284 284 284 285 286 286 286 286 286 286 288 288 288 287 286 284 284 285 286 286 287 287 287 286 287 288
281 281 280 280 280 280 280 279 277 274 274 273 273 272 272 272 273 275 276 277 278 279 279 280 281 281 281 281 282 282 282 282 282 282 282 283 284 284 284 285 285 285 285 285 286 286 286 286 287 286 286 285 285 284 284 285 285 285 285 285 286 286
279 279 279 278 278 278 278 277 277 274 273 271 271 270 271 271 272 273 274 274 276 277 278 279 280 280 280 281 282 282 282 282 282 283 282 283 283 284 284 284 284 284 284 285 285 286 286 286 286 286 286 286 286 286 286 286 286 285 284 285 286 286
277 277 277 277 276 275 275 275 275 273 271 270 269 269 268 269 270 271 271 272 274 276 277 278 278 278 279 280 281 281 281 282 282 282 282 283 283 283 283 284 284 284 284 284 285 285 285 285 286 286 286 286 286 286 287 287 286 286 286 286 286 286
275 275 275 275 274 273 273 273 273 272 270 268 267 267 266 267 268 269 270 272 273 274 276 276 276 277 278 279 280 281 281 280 280 281 281 283 283 283 282 282 283 283 284 284 284 283 283 284 284 286 286 285 285 285 285 285 286 286 286 286 286 285
274 273 274 273 272 271 271 271 271 271 268 266 266 266 265 265 266 268 270 271 271 273 273 274 275 276 277 278 278 279 280 281 282 282 281 282 283 283 283 283 282 283 284 284 284 285 283 283 285 286 285 285 285 286 286 286 286 286 286 286 286 286
272 272 273 272 271 270 270 270 270 268 266 265 264 264 264 264 265 267 268 269 269 270 271 273 274 275 275 276 278 278 278 279 281 282 283 283 283 283 283 284 284 285 285 285 284 285 286 286 285 285 285 285 285 286 286 286 286 286 286 286 285 284
270 271 272 270 269 268 268 268 268 266 264 263 263 263 263 263 264 265 266 267 268 270 271 272 272 273 274 275 276 277 277 277 277 279 282 283 282 283 283 284 284 284 285 285 285 284 285 285 286 286 285 285 285 285 285 286 286 286 286 286 286 283
270 271 271 269 267 266 266 266 266 264 262 262 262 262 262 262 263 263 264 266 268 269 270 271 272 273 273 274 274 275 276 276 276 276 277 280 281 282 282 283 283 284 284 285 285 285 285 284 285 285 285 285 285 285 285 285 286 286 286 286 284 283
270 271 268 266 265 265 264 264 263 262 261 261 261 261 261 262 262 264 265 266 267 267 268 270 270 271 272 273 274 274 275 275 276 276 276 276 277 279 281 283 283 284 284 284 284 284 284 284 284 284 284 284 284 284 285 285 285 286 286 285 283 283
269 268 266 265 264 263 262 262 262 261 261 260 261 260 261 261 263 264 265 266 267 267 268 269 269 270 270 271 271 273 274 275 276 277 277 276 276 277 277 279 281 283 284 283 283 283 283 283 283 283 284 284 284 284 285 285 284 283 283 284 284 283
265 264 264 264 263 261 260 260 261 261 260 260 260 260 260 261 262 264 265 266 266 267 267 267 268 269 269 270 271 272 273 275 276 276 277 277 278 278 278 279 280 281 282 282 282 283 283 283 283 283 283 283 283 284 284 282 282 282 282 282 283 283
Wind_Speed
2 1 1 0 1 1 1 0 2 3 4 4 5 6 6 6 5 5 4 5 4 4 5 6 6 7 6 6 7 6 8 8 6 6 7 5 6 6 6 6 6 6 7 7 8 8 9 10 10 11 11 11 11 11 9 9 10 10 11 8 8 7
3 2 1 1 1 2 2 2 1 3 3 4 4 3 3 4 5 5 5 5 5 4 4 5 4 5 5 5 4 5 5 6 6 6 6 7 5 6 6 6 7 7 7 7 8 7 8 10 12 11 11 11 11 11 10 9 10 11 11 10 9 6
4 3 2 1 0 0 1 2 4 3 3 4 4 5 5 6 5 5 4 4 4 5 5 5 4 5 4 4 5 6 6 6 7 7 6 4 5 4 5 6 6 7 8 9 8 10 11 11 11 11 10 11 12 11 12 12 13 14 12 9 11 11
2 1 1 1 1 0 2 2 1 2 3 2 2 3 4 5 5 4 4 3 3 3 3 4 3 3 3 4 4 6 6 6 6 6 6 8 6 7 9 8 8 9 10 10 10 11 11 12 12 12 11 12 12 12 10 12 13 14 11 10 11 10
1 1 2 1 1 1 1 0 1 2 2 2 2 3 3 2 2 2 2 2 3 3 3 3 4 3 4 5 5 6 6 6 6 5 7 7 6 7 8 9 9 9 9 10 10 11 11 12 12 12 12 12 12 12 12 12 12 13 11 10 10 9
4 4 4 4 4 4 3 2 1 1 1 2 3 4 4 3 2 1 2 3 3 4 4 5 4 4 5 5 5 6 6 5 5 4 7 7 7 7 7 8 9 9 9 9 10 10 11 11 11 12 12 12 12 12 13 13 13 13 12 10 9 9
6 6 4 4 4 2 1 2 2 2 2 2 2 2 2 2 2 3 3 3 4 4 5 5 4 4 4 5 4 5 4 5 4 4 6 7 7 8 7 7 7 8 8 9 10 11 11 12 12 13 12 11 11 12 12 13 12 12 10 9 9 9
4 4 5 4 4 4 3 3 3 2 1 1 0 0 0 1 1 2 3 3 4 3 3 3 3 3 3 3 3 4 4 4 4 4 4 5 7 7 7 7 7 7 8 9 10 10 11 11 11 12 12 11 11 11 11 11 9 9 9 10 10 10
4 4 2 2 3 3 3 4 4 3 3 2 2 2 1 0 0 1 1 2 2 2 1 1 1 1 1 2 3 2 3 3 3 3 4 4 5 7 7 7 8 7 7 8 8 9 10 11 11 12 12 12 12 12 11 10 10 10 10 10 9 10
2 1 2 2 3 4 3 2 3 3 3 3 3 2 1 0 1 1 1 0 0 0 1 1 1 1 1 2 2 2 2 3 3 3 3 3 5 6 7 7 7 7 7 8 9 9 10 11 11 11 12 12 12 11 10 9 10 10 10 11 10 10
3 2 1 2 4 5 5 4 4 3 2 2 3 3 3 2 1 2 2 2 2 3 2 2 2 2 2 2 2 3 3 3 3 3 3 4 5 5 6 7 7 8 8 9 9 9 9 10 10 10 10 11 12 11 12 11 10 10 10 10 10 10
4 4 1 1 2 4 5 4 4 4 4 4 4 4 3 2 2 2 2 3 3 3 3 3 3 2 2 2 3 3 3 3 3 3 4 5 5 5 5 6 7 8 8 9 9 9 9 9 9 9 12 11 10 10 10 10 10 9 9 10 10 11
2 2 1 2 2 3 4 3 3 3 3 3 3 3 3 3 3 3 3 4 3 3 3 3 3 3 2 2 2 2 3 3 3 4 4 5 5 5 5 5 7 8 8 8 8 9 9 9 9 10 11 13 13 12 11 11 10 9 9 10 10 11
4 3 2 2 2 2 2 3 2 2 2 2 2 2 1 2 2 3 4 3 3 3 4 3 3 3 2 2 2 3 2 2 2 3 3 4 3 4 5 6 7 6 7 7 8 9 9 10 10 10 12 12 12 12 11 11 11 9 9 10 10 10
2 2 3 4 3 3 2 1 2 1 1 1 1 1 2 3 3 4 5 5 5 5 4 3 3 3 3 3 3 2 2 2 2 3 3 3 3 3 5 6 6 7 6 7 8 9 9 9 9 10 13 13 14 13 12 10 11 11 10 10 11 11
3 4 5 4 3 2 2 2 2 1 1 1 1 3 4 5 6 6 6 6 6 5 4 4 3 4 4 3 2 3 2 2 2 3 3 3 2 4 5 4 6 7 6 7 7 8 8 9 7 9 11 12 12 13 12 11 12 12 13 13 12 10
4 5 5 4 3 2 2 2 1 1 3 2 5 5 6 6 6 6 6 6 5 5 6 6 6 6 4 4 3 3 3 3 3 3 3 3 3 3 4 4 4 4 3 5 5 7 9 8 8 9 11 12 12 12 11 11 11 11 12 12 12 11
4 5 5 3 3 3 4 3 2 4 5 4 6 6 6 5 6 6 6 6 7 7 7 7 6 6 4 4 4 3 4 3 3 4 3 3 3 3 3 4 3 4 4 4 4 7 9 9 9 9 11 12 12 11 9 9 10 11 12 12 12 11
5 5 4 4 5 5 5 3 3 5 5 7 5 5 5 6 7 7 7 6 7 7 6 6 6 4 4 4 4 4 4 5 6 4 3 4 4 4 4 4 4 4 5 5 4 6 9 9 10 11 12 12 12 10 7 8 9 10 11 12 11 11
6 5 5 6 7 7 5 4 3 5 7 6 6 6 6 7 7 6 6 6 6 6 6 6 5 5 5 4 5 6 5 4 4 4 3 4 6 6 5 5 5 4 4 5 6 5 7 9 9 10 12 12 13 11 8 7 8 9 10 11 11 10
7 6 7 8 9 7 6 5 5 5 7 7 6 6 7 8 7 8 8 7 7 6 6 6 4 5 5 5 5 5 6 6 5 5 4 4 5 6 5 5 5 5 4 4 6 7 9 9 10 11 13 13 12 10 7 8 8 10 9 9 9 9
5 8 9 10 8 6 5 4 5 6 7 6 5 8 8 8 7 7 7 7 7 6 6 4 5 5 5 6 6 5 6 6 5 5 5 5 5 5 4 5 5 7 7 5 6 6 6 8 8 8 12 11 12 13 9 8 9 10 9 9 9 9
8 9 8 7 6 6 5 4 5 7 7 6 7 9 7 7 7 7 7 7 6 6 5 4 4 6 6 5 6 6 6 5 5 6 5 6 5 4 5 6 6 7 7 5 5 6 6 6 9 10 11 13 13 14 12 8 10 10 10 10 9 9
8 8 8 8 7 7 6 4 6 7 6 7 9 8 7 8 7 7 7 7 6 6 5 5 5 5 5 5 5 6 6 6 5 6 6 5 5 6 7 6 6 6 7 6 5 5 6 7 10 9 9 12 14 14 15 10 9 9 9 11 10 10
7 8 8 7 7 7 6 6 7 6 6 9 8 7 8 8 7 8 7 6 6 6 6 5 6 6 5 5 5 6 7 6 6 6 5 6 6 6 7 6 5 6 7 6 5 4 4 4 5 10 9 11 13 14 14 15 13 14 11 11 12 10
6 7 7 7 8 8 8 7 7 7 8 9 8 8 7 7 7 7 7 6 6 7 6 7 7 6 5 6 7 6 7 7 6 6 5 5 5 6 6 5 5 5 6 6 7 4 3 3 4 7 10 10 12 13 15 15 16 15 10 10 10 9
6 6 7 7 8 7 7 7 7 8 8 7 8 8 8 8 8 7 7 8 8 8 7 7 7 7 7 6 7 7 7 7 6 6 5 4 5 5 6 7 5 6 6 7 7 7 5 4 4 4 7 11 11 13 15 15 16 15 15 11 10 10
6 6 6 7 8 7 7 7 7 8 7 6 6 7 7 8 8 7 7 7 6 7 7 8 7 6 5 6 5 6 6 7 7 6 6 5 5 5 5 6 6 6 6 7 7 7 7 5 5 5 5 7 7 8 11 14 14 14 13 13 11 13
6 6 6 7 7 7 6 7 6 7 6 6 7 6 7 7 7 7 7 7 7 7 7 7 6 7 7 6 5 6 6 7 7 8 7 5 6 6 6 6 6 6 6 7 7 7 7 7 5 5 4 4 4 4 5 6 6 9 10 8 7 9
6 6 5 5 6 6 6 6 6 6 7 6 7 7 7 6 5 6 7 8 7 6 6 6 8 8 6 6 6 7 7 6 7 7 8 6 6 7 7 7 7 7 7 8 8 8 9 8 6 4 4 4 5 6 6 6 7 6 5 7 7 6
6 6 5 5 6 6 6 6 6 6 8 8 8 9 8 7 8 7 7 7 6 6 6 6 6 6 7 7 7 6 7 8 8 8 9 8 7 7 8 8 9 8 8 10 10 10 11 10 8 4 3 6 9 10 10 9 8 8 9 9 11 10
6 5 5 5 5 5 5 6 6 7 8 9 9 9 8 9 8 7 7 6 6 6 7 7 7 7 7 7 8 9 9 8 11 11 10 11 10 11 14 14 12 10 8 10 11 10 11 12 11 13 16 18 17 17 17 16 17 17 13 15 18 13
5 5 5 5 5 6 6 5 6 7 8 8 8 8 8 8 7 6 6 7 6 8 8 8 7 8 8 8 8 8 9 11 9 10 14 16 16 16 16 17 18 19 18 13 13 13 16 18 23 26 21 20 18 16 17 17 17 17 17 16 11 9
4 5 5 5 5 5 5 5 5 7 7 8 7 7 7 7 6 6 6 6 7 8 8 7 8 8 8 8 8 8 9 9 11 12 7 8 13 16 15 16 17 18 17 18 16 15 13 15 15 16 17 17 17 18 18 17 17 17 16 15 14 10
4 4 5 6 6 6 6 5 6 7 8 8 8 7 7 6 6 6 7 7 7 7 8 7 7 7 8 9 9 9 8 9 9 10 13 11 8 13 17 18 16 16 17 17 17 17 17 19 19 21 19 17 18 18 17 17 17 16 16 16 10 9
3 3 5 5 5 5 5 5 6 7 8 8 8 7 7 7 7 7 6 7 8 8 7 7 7 8 8 8 8 9 9 9 8 9 10 12 13 12 8 9 11 12 14 15 17 18 19 19 19 18 18 17 17 17 16 15 12 15 15 13 9 8
2 4 4 5 4 5 5 4 5 6 7 8 8 8 8 7 7 7 7 10 9 7 7 7 7 8 8 8 8 9 9 9 10 10 10 10 11 11 12 13 11 9 9 11 14 16 17 18 19 18 18 18 17 16 16 16 10 9 7 7 7 7
4 3 3 3 4 4 4 4 5 6 7 7 7 7 7 7 7 7 6 7 7 7 7 7 8 8 9 9 9 9 10 10 10 10 10 11 11 11 12 11 10 9 12 16 15 15 16 15 15 16 16 16 16 16 15 9 8 8 7 6 6 6
Wind_Direction
53 44 92 134 240 247 261 121 154 177 189 187 192 187 184 179 180 189 193 199 195 201 208 209 219 228 235 242 249 252 254 250 242 236 235 228 217 218 218 219 226 229 229 231 240 242 239 242 242 238 236 233 235 233 227 221 219 223 232 229 226 233
48 40 57 127 175 180 195 198 189 208 202 188 196 183 172 178 193 194 201 198 199 201 207 214 217 224 229 235 241 249 250 251 251 246 241 240 230 223 216 217 219 223 228 228 236 240 246 248 247 243 240 238 237 236 230 221 210 218 226 234 227 224
51 51 32 348 309 252 192 189 200 204 198 204 199 195 194 201 200 194 199 184 197 202 216 218 212 226 227 234 243 252 253 254 251 250 252 250 238 236 235 227 225 234 238 239 231 247 250 245 244 242 243 242 242 238 235 233 226 227 233 236 248 239
43 54 17 348 313 213 201 177 199 200 201 207 204 213 215 205 193 198 193 185 181 198 216 221 228 231 231 235 238 240 245 248 249 253 259 259 254 253 253 245 245 244 245 246 245 245 245 245 243 241 239 242 243 242 238 237 234 236 237 236 239 232
276 300 289 269 276 6 351 319 211 196 197 190 205 224 234 236 235 199 197 185 190 205 208 211 223 216 222 226 233 235 239 243 250 255 261 261 261 257 250 253 248 243 243 245 244 244 244 243 245 244 240 240 241 242 242 239 238 236 234 230 234 231
195 184 164 163 162 168 167 177 183 166 184 194 197 214 219 217 226 210 201 195 192 191 194 206 204 205 218 223 231 236 241 243 249 254 261 262 263 256 253 250 251 246 245 244 245 244 244 243 244 245 244 241 239 240 244 244 242 241 238 232 233 229
25 16 3 6 350 351 71 116 132 150 149 176 201 215 219 216 188 191 192 196 192 190 204 203 197 201 210 226 238 242 246 249 249 242 253 260 257 258 257 252 247 246 243 242 243 245 245 245 245 246 246 243 241 242 245 247 246 242 236 235 236 234
347 8 10 351 352 343 338 353 6 4 12 104 101 341 193 223 185 193 185 176 193 198 207 205 199 209 227 240 255 256 257 258 251 250 248 256 265 265 259 256 252 243 243 245 249 252 255 255 254 256 256 254 249 244 245 246 242 242 239 237 236 235
33 1 349 313 299 325 341 346 348 355 347 7 40 30 350 9 198 159 179 181 192 196 205 211 229 243 251 259 266 271 267 259 259 254 256 248 257 268 265 262 258 255 249 250 249 250 252 254 254 255 254 253 250 247 239 236 240 242 241 240 236 234
307 330 347 324 328 335 1 13 343 333 332 336 357 18 22 27 145 136 150 155 133 12 20 17 351 326 306 297 291 284 281 282 274 267 266 260 258 262 265 266 264 264 257 254 251 251 251 252 253 252 251 250 249 249 243 233 236 241 242 243 242 241
309 337 292 320 348 336 347 350 342 343 338 2 5 6 21 2 35 55 40 25 19 22 11 354 358 341 334 321 312 302 294 288 287 281 274 261 256 258 262 267 267 264 260 257 255 255 253 252 251 249 246 247 249 250 253 250 243 237 244 247 244 243
230 270 289 278 304 335 347 340 339 350 352 3 2 356 5 357 46 53 43 32 25 14 5 352 350 347 342 331 311 306 301 294 286 273 265 259 254 254 258 264 264 260 259 261 259 256 254 252 252 245 242 244 252 255 256 256 251 240 242 248 249 247
180 228 289 316 334 311 314 308 315 337 350 356 348 341 348 357 45 48 38 40 27 14 4 359 4 350 343 335 313 299 291 276 266 262 258 258 256 255 253 251 259 257 255 253 254 254 251 251 252 245 242 243 242 248 257 259 257 245 241 243 247 251
154 181 170 164 170 216 271 298 330 339 7 350 331 329 332 43 66 70 64 51 38 32 20 9 354 348 342 335 316 307 294 287 278 270 268 265 262 256 250 252 249 251 252 255 257 256 255 256 251 250 254 253 251 243 250 257 257 250 244 242 241 247
99 134 128 135 143 160 179 239 234 225 254 237 252 214 129 101 86 80 66 49 42 33 23 5 356 344 345 343 323 301 289 276 274 269 264 260 261 266 253 248 250 251 247 248 258 261 259 261 251 248 251 254 253 251 247 257 257 257 251 246 244 244
117 120 120 123 127 145 162 192 204 185 201 192 171 106 79 75 62 60 57 49 39 27 15 9 355 355 350 340 329 323 313 307 295 300 291 284 272 256 259 256 253 255 251 250 256 264 267 264 257 250 256 257 257 256 253 259 261 260 259 255 251 246
102 93 83 76 77 87 142 114 62 152 89 62 72 59 70 65 66 57 46 40 28 16 12 5 2 357 348 342 337 327 322 316 312 300 298 294 285 275 273 277 272 263 262 262 263 271 274 270 275 270 268 268 264 261 258 264 264 264 263 261 256 251
77 73 70 46 46 49 48 38 5 55 60 51 58 59 58 60 58 48 31 26 16 9 2 358 354 351 345 341 333 324 320 321 312 310 308 294 289 279 275 273 264 270 273 270 267 272 274 276 278 275 274 274 271 265 266 266 265 265 265 264 261 258
79 78 79 60 44 41 36 23 37 67 66 57 45 50 45 45 44 28 20 16 6 359 353 352 345 338 339 334 329 324 324 327 323 316 317 304 298 296 290 285 279 279 281 278 272 270 275 278 284 281 276 274 273 273 273 271 269 267 266 266 265 264
84 73 74 67 54 37 21 17 48 68 66 57 42 39 38 39 30 16 9 2 355 347 345 343 342 333 330 329 325 317 313 312 307 304 319 308 305 299 295 295 290 278 270 270 265 262 274 278 280 278 274 270 270 269 272 272 271 269 267 271 269 266
78 77 66 60 50 27 18 24 36 59 63 50 39 36 37 26 10 2 353 346 340 337 338 337 336 327 320 313 306 306 306 305 303 299 296 284 279 274 282 283 283 282 276 262 266 262 264 273 276 270 269 263 259 262 266 268 270 269 265 267 269 264
83 61 54 49 39 21 16 36 62 66 64 53 45 41 29 10 357 339 333 329 331 332 329 327 317 306 303 297 297 298 291 293 293 288 290 284 279 282 282 283 282 286 282 276 275 269 257 268 272 270 268 263 261 261 265 266 265 265 267 265 266 271
69 68 60 50 33 26 19 33 58 61 53 47 42 33 11 351 338 331 330 325 321 321 318 319 309 299 291 287 294 295 290 288 287 290 290 288 282 274 280 274 275 271 267 260 250 267 259 255 274 277 268 270 268 266 261 263 258 262 267 269 267 264
78 75 62 46 34 28 24 31 63 60 52 47 39 14 352 341 336 331 325 320 313 308 304 298 297 284 289 291 293 295 289 284 283 286 288 290 293 286 274 273 280 280 277 273 252 243 251 258 256 273 273 266 269 269 261 261 262 260 266 270 268 266
78 68 61 44 36 31 26 38 59 59 55 48 24 356 347 336 332 326 317 309 305 309 303 301 305 305 295 291 287 284 289 293 297 289 282 280 283 274 279 276 273 278 283 283 274 254 241 244 256 257 267 269 266 269 268 262 262 262 260 263 267 266
81 79 63 50 45 42 37 41 55 54 52 36 5 347 338 335 328 323 317 319 321 319 327 328 320 313 312 315 315 305 297 298 298 292 288 294 295 298 296 297 294 291 288 293 295 285 270 257 264 261 257 264 264 268 269 268 264 262 257 259 264 268
82 83 69 53 46 45 41 43 56 56 47 17 358 345 343 335 327 327 329 330 326 328 328 325 322 321 325 324 322 316 309 305 310 302 297 287 287 285 289 292 295 291 293 292 289 294 292 278 273 271 264 262 262 266 270 270 268 266 263 262 262 259
72 73 71 57 46 42 43 44 56 53 30 4 355 341 333 323 321 332 332 332 328 327 323 326 317 310 313 315 316 314 311 309 309 301 299 295 287 284 282 288 290 289 288 286 287 288 288 282 273 268 269 272 268 262 260 263 267 266 262 258 263 266
71 67 67 61 42 39 35 41 53 50 24 5 353 340 333 323 325 326 325 327 322 316 320 320 330 327 323 324 318 310 298 297 299 303 300 293 292 291 287 286 286 288 288 287 293 294 295 290 281 273 272 277 282 280 268 259 259 249 252 256 257 257
65 57 59 62 43 29 27 27 36 44 22 4 354 339 334 326 330 323 315 321 316 317 323 320 317 316 313 309 309 311 309 306 303 299 296 298 302 303 300 301 297 295 298 300 300 301 297 291 283 279 287 298 305 305 302 295 290 285 284 282 284 285
57 50 52 61 43 22 19 19 19 27 19 9 355 349 346 339 331 322 316 319 326 323 325 318 315 316 317 312 312 302 299 301 301 296 291 282 277 280 289 293 287 285 289 294 295 298 297 290 282 273 321 303 291 288 293 296 294 298 295 293 295 292
59 44 53 61 44 21 13 13 14 23 19 8 354 351 349 343 336 333 334 334 333 331 331 329 324 324 321 317 315 314 306 281 274 274 280 289 282 268 264 265 268 274 287 288 284 280 278 283 286 300 300 292 289 286 283 280 281 282 283 285 288 287
42 44 57 54 32 16 9 10 15 26 14 6 354 350 344 341 338 334 330 333 333 330 324 322 321 321 316 311 313 312 310 312 304 281 275 276 276 275 276 277 273 272 266 267 281 284 277 275 282 288 289 290 288 287 286 287 286 287 286 286 288 279
34 39 52 49 26 10 2 11 17 29 8 0 352 348 344 340 336 328 321 319 316 320 324 318 313 311 313 312 313 311 311 311 312 310 284 274 292 292 284 278 277 274 275 274 273 279 290 287 285 286 290 291 290 289 290 289 288 287 286 284 282 277
31 28 49 40 20 6 1 9 9 16 2 353 347 343 341 335 330 315 313 312 316 318 316 313 313 312 312 310 310 311 310 309 309 308 313 311 296 288 289 286 276 273 274 277 280 280 281 286 290 291 291 290 290 292 291 291 288 286 284 283 277 266
22 52 56 43 18 357 355 1 3 7 353 345 342 340 329 328 323 318 315 321 319 317 316 315 316 314 312 309 305 302 302 300 297 298 300 305 314 316 286 263 278 285 285 282 284 288 292 293 293 293 294 292 292 292 292 291 288 284 280 270 262 261
52 59 46 36 9 359 355 357 354 0 343 339 337 338 335 331 329 322 315 314 319 315 316 315 315 313 310 310 309 308 306 302 302 298 298 299 302 303 306 312 310 301 291 301 305 300 296 297 298 297 297 297 296 295 292 291 286 280 273 262 254 258
65 42 30 20 3 351 346 344 355 350 337 334 336 333 334 333 330 327 324 320 323 323 317 314 311 310 307 308 308 306 302 301 303 304 303 301 296 296 299 301 302 303 307 301 292 289 295 300 304 303 303 301 298 296 294 285 277 275 266 254 248 250